Portland Troutdale, OR

4:07 PM PDT on April 25, 2018 (GMT -0700)
Portland-Troutdale

Weather History for KTTD - December, 2013

Change the Weather History Date:

Wednesday, December 11, 2013

  Actual Average Record
Temperature  
Mean Temperature 34 °F 39 °F  
Max Temperature 42 °F 45 °F 65 °F (2014)
Min Temperature 26 °F 34 °F 12 °F (1972)
Degree Days  
Heating Degree Days 31 26  
Month to date heating degree days 359 273  
Cooling Degree Days 0 0  
Month to date cooling degree days 0 0  
Moisture  
Dew Point 27 °F    
Average Humidity 73    
Maximum Humidity 92    
Minimum Humidity 54    
Precipitation  
Precipitation 0.00 in 0.22 in 2.98 in (1996)
Month to date precipitation 1.17 2.49  
Year to date precipitation 27.31 42.29  
Snow  
Snow 0.00 in - - ()
Month to date snowfall 0.0  
Snow Depth 0.00 in    
Sea Level Pressure  
Sea Level Pressure 30.31 in    
Wind  
Wind Speed 12 mph (NE)    
Max Wind Speed 28 mph    
Max Gust Speed 37 mph    
Visibility 6 miles    
Events Fog    
T = Trace of Precipitation, MM = Missing Value Source: NWS Daily Summary

Daily Weather History Graph

Daily Weather History Graph

Search for Another Location

Airport or City:

Astronomy

Dec. 11, 2013 Rise Set
Actual Time 7:40 AM PST 4:25 PM PST
Civil Twilight 7:05 AM PST 5:00 PM PST
Nautical Twilight 6:28 AM PST 5:37 PM PST
Astronomical Twilight 5:52 AM PST 6:13 PM PST
Moon 1:14 PM PST (12/11) 1:53 AM PST (12/11)
Length of Visible Light 9h 54m
Length of Day
8h 45m
Waxing Gibbous, 72% of the Moon is Illuminated
Dec 11
Waxing Gibbous
Dec 17
Full
Dec 25
Last Quarter
Jan 1
New
Jan 7
First Quarter

Hourly Weather History & Observations

Time (PST) Temp. Windchill Dew Point Humidity Pressure Visibility Wind Dir Wind Speed Gust Speed Precip Events Conditions
12:53 AM 27.0 °F 20.5 °F 25.0 °F 92% 30.40 in 0.2 mi WSW 5.8 mph - N/A Fog Light Freezing Fog
1:53 AM 27.0 °F - 25.0 °F 92% 30.40 in 0.2 mi Calm Calm - N/A Fog Light Freezing Fog
2:53 AM 28.9 °F 25.2 °F 27.0 °F 92% 30.40 in 0.5 mi West 3.5 mph - N/A Fog Light Freezing Fog
3:53 AM 28.9 °F 22.8 °F 27.0 °F 92% 30.38 in 0.5 mi West 5.8 mph - N/A Fog Light Freezing Fog
4:53 AM 30.0 °F 24.1 °F 26.1 °F 85% 30.36 in 0.8 mi West 5.8 mph - N/A   Mist
5:45 AM 28.9 °F 22.8 °F 26.1 °F 89% 30.35 in 1.0 mi West 5.8 mph - N/A   Mist
5:53 AM 28.9 °F 22.8 °F 26.1 °F 89% 30.36 in 0.8 mi Variable 5.8 mph - N/A   Mist
6:53 AM 30.0 °F 25.2 °F 28.0 °F 92% 30.36 in 0.2 mi WSW 4.6 mph - N/A Fog Light Freezing Fog
7:53 AM 30.0 °F - 27.0 °F 88% 30.35 in 0.2 mi Calm Calm - N/A Fog Light Freezing Fog
8:18 AM 30.0 °F 24.1 °F 27.0 °F 88% 30.35 in 1.2 mi WNW 5.8 mph - N/A   Mostly Cloudy
8:23 AM 30.0 °F 23.2 °F 27.0 °F 88% 30.35 in 8.0 mi WNW 6.9 mph - N/A   Scattered Clouds
8:53 AM 30.9 °F 27.5 °F 27.0 °F 85% 30.35 in 8.0 mi NW 3.5 mph - N/A   Scattered Clouds
9:53 AM 32.0 °F 26.4 °F 28.9 °F 88% 30.36 in 7.0 mi WNW 5.8 mph - N/A   Clear
10:32 AM 32.0 °F 26.4 °F 28.9 °F 88% 30.36 in 8.0 mi West 5.8 mph - N/A   Clear
10:53 AM 33.1 °F 30.0 °F 30.0 °F 89% 30.35 in 9.0 mi Variable 3.5 mph - N/A   Clear
11:53 AM 37.0 °F 32.4 °F 30.9 °F 79% 30.33 in 9.0 mi West 5.8 mph - N/A   Clear
12:23 PM 39.9 °F 37.8 °F 28.9 °F 65% 30.32 in 10.0 mi Variable 3.5 mph - N/A   Clear
12:53 PM 42.1 °F 35.7 °F 28.0 °F 58% 30.29 in 10.0 mi ENE 11.5 mph 19.6 mph N/A   Clear
1:53 PM 41.0 °F 32.5 °F 26.1 °F 55% 30.27 in 10.0 mi East 17.3 mph 24.2 mph N/A   Clear
2:53 PM 41.0 °F 32.8 °F 26.1 °F 55% 30.27 in 10.0 mi East 16.1 mph 21.9 mph N/A   Clear
3:53 PM 39.9 °F 31.4 °F 25.0 °F 55% 30.26 in 10.0 mi East 16.1 mph 20.7 mph N/A   Clear
4:53 PM 37.9 °F 27.3 °F 25.0 °F 60% 30.25 in 10.0 mi East 21.9 mph 32.2 mph N/A   Clear
5:53 PM 37.9 °F 27.3 °F 25.0 °F 60% 30.24 in 10.0 mi East 21.9 mph 27.6 mph N/A   Clear
6:53 PM 37.0 °F 26.4 °F 25.0 °F 62% 30.23 in 10.0 mi East 20.7 mph 27.6 mph N/A   Clear
7:53 PM 37.0 °F 26.4 °F 25.0 °F 62% 30.22 in 10.0 mi East 20.7 mph 27.6 mph N/A   Clear
8:53 PM 36.0 °F 24.7 °F 25.0 °F 64% 30.22 in 10.0 mi East 21.9 mph 29.9 mph N/A   Clear
9:53 PM 36.0 °F 24.4 °F 25.0 °F 64% 30.22 in 10.0 mi East 23.0 mph 33.4 mph N/A   Clear
10:53 PM 36.0 °F 24.4 °F 24.1 °F 62% 30.21 in 10.0 mi East 23.0 mph 29.9 mph N/A   Clear
11:53 PM 35.1 °F 24.5 °F 24.1 °F 64% 30.21 in 10.0 mi East 18.4 mph - N/A   Clear